Weather History for Mombasa, Kenya

Change the Weather History Date:

Tuesday, October 30, 2012

  Actual Average Record
Temperature  
Mean Temperature 80 °F -  
Max Temperature 87 °F 89 °F 87 °F (1996)
Min Temperature 73 °F 72 °F 69 °F (2000)
Cooling Degree Days 15    
Growing Degree Days 30 (Base 50)    
Moisture  
Dew Point 71 °F    
Average Humidity 75    
Maximum Humidity 94    
Minimum Humidity 47    
Precipitation  
Precipitation 0.00 in 0.14 in - ()
Sea Level Pressure  
Sea Level Pressure 29.85 in    
Wind  
Wind Speed 5 mph ()    
Max Wind Speed 14 mph    
Max Gust Speed -    
Visibility 8.1 miles    
Events      
Averages and records for this station are not official NWS values.
T = Trace of Precipitation, MM = Missing Value Source: Averaged Metar Reports

Daily Weather History Graph

Daily Weather History Graph

Search for Another Location

Airport:

Trip Planner

Search our weather history database for the weather conditions in past years. The results will help you decide how hot, cold, wet, or windy it might be!

Date:

Astronomy

Oct. 30, 2012 Rise Set
Actual Time 5:57 AM EAT 6:12 PM EAT
Civil Twilight 5:36 AM EAT 6:34 PM EAT
Nautical Twilight 5:11 AM EAT 6:58 PM EAT
Astronomical Twilight 4:46 AM EAT 7:23 PM EAT
Moon 6:45 PM EAT (10/30) 6:11 AM EAT (10/30)
Length of Visible Light 12h 57m
Length of Day
12h 14m
Full, 100% of the Moon is Illuminated
Oct 30
Full
Nov 7
Last Quarter
Nov 14
New
Nov 20
First Quarter
Nov 28
Full

Hourly Weather History & Observations

Time (EAT) Temp. Heat Index Dew Point Humidity Pressure Visibility Wind Dir Wind Speed Gust Speed Precip Events Conditions
12:00 AM 78.8 °F - 73.4 °F 83% 29.89 in 6.2 mi South 4.6 mph - N/A   Partly Cloudy
1:00 AM 75.2 °F - 73.4 °F 94% 29.89 in 6.2 mi Calm Calm - N/A   Partly Cloudy
2:00 AM 75.2 °F - 73.4 °F 94% 29.86 in 6.2 mi SSW 3.5 mph - N/A   Partly Cloudy
3:00 AM 75 °F - 72 °F 89% 29.86 in 19 mi SW 3.5 mph - -   Partly Cloudy
4:00 AM 75.2 °F - 73.4 °F 94% 29.86 in 6.2 mi WSW 3.5 mph - N/A   Partly Cloudy
4:30 AM 75.2 °F - 71.6 °F 89% 29.86 in 6.2 mi SW 3.5 mph - N/A   Partly Cloudy
6:00 AM 75.2 °F - 71.6 °F 89% 29.89 in 6.2 mi West 5.8 mph - N/A   Partly Cloudy
7:00 AM 75.2 °F - 71.6 °F 89% 29.89 in 6.2 mi West 8.1 mph - N/A   Scattered Clouds
8:00 AM 77.0 °F - 71.6 °F 83% 29.92 in 6.2 mi WSW 5.8 mph - N/A   Mostly Cloudy
9:00 AM 81 °F - 73 °F 70% 29.93 in 19 mi WSW 8.1 mph - -   Partly Cloudy
9:00 AM 80.6 °F 85.4 °F 73.4 °F 79% 29.92 in 6.2 mi WSW 8.1 mph - N/A   Scattered Clouds
10:00 AM 82.4 °F 87.2 °F 71.6 °F 70% 29.92 in 6.2 mi South 5.8 mph - N/A   Scattered Clouds
11:00 AM 86.0 °F 89.4 °F 68.0 °F 55% 29.92 in 6.2 mi SSE 6.9 mph - N/A   Partly Cloudy
12:00 PM 87.8 °F 92.6 °F 69.8 °F 55% 29.89 in 6.2 mi ESE 6.9 mph - N/A   Partly Cloudy
1:00 PM 87.8 °F 92.6 °F 69.8 °F 55% 29.83 in 6.2 mi SSE 11.5 mph - N/A   Partly Cloudy
2:00 PM 86.0 °F 89.4 °F 68.0 °F 55% 29.83 in 6.2 mi SE 13.8 mph - N/A   Mostly Cloudy
3:00 PM 86 °F - 69 °F 47% 29.80 in 19 mi SSE 8.1 mph - -   Scattered Clouds
3:00 PM 86.0 °F 89.4 °F 68.0 °F 55% 29.80 in 6.2 mi SSE 8.1 mph - N/A   Mostly Cloudy
4:00 PM 84.2 °F 88.4 °F 69.8 °F 62% 29.77 in 6.2 mi SE 11.5 mph - N/A   Mostly Cloudy
5:00 PM 82.4 °F 87.2 °F 71.6 °F 70% 29.77 in 6.2 mi SE 6.9 mph - N/A   Mostly Cloudy
6:00 PM 80.6 °F 84.6 °F 71.6 °F 74% 29.77 in 6.2 mi SSE 5.8 mph - N/A   Mostly Cloudy
7:00 PM 80.6 °F 84.6 °F 71.6 °F 74% 29.80 in 6.2 mi ESE 8.1 mph - N/A   Mostly Cloudy
8:00 PM 80.6 °F 84.6 °F 71.6 °F 74% 29.80 in 6.2 mi SE 10.4 mph - N/A   Scattered Clouds
9:00 PM 80 °F - 73 °F 73% 29.84 in 19 mi ESE 5.8 mph - -   Partly Cloudy
9:00 PM 78.8 °F - 73.4 °F 83% 29.83 in 6.2 mi ESE 5.8 mph - N/A   Scattered Clouds
10:00 PM 78.8 °F - 73.4 °F 83% 29.86 in 6.2 mi ESE 3.5 mph - N/A   Scattered Clouds
11:00 PM 78.8 °F - 71.6 °F 78% 29.86 in 6.2 mi SE 8.1 mph - N/A   Scattered Clouds